Location: Phone Location
(34.1440°N, 118.1100°W)
Time: 14:59:56
(UTC-07:00)

ISS - Visible Passes

Search period start: 24 May 2022 00:00
Search period end: 03 June 2022 00:00
Orbit: 414 x 421 km, 51.6° (Epoch: 24 May)

Date Brightness Start Highest point End Pass type
(mag) Time Alt. Az. Time Alt. Az. Time Alt. Az.
24 May -0.6 22:58:11 10° N 22:58:53 12° N 22:58:53 12° N visible
26 May -0.9 22:57:44 10° NNW 22:58:50 17° NNW 22:58:50 17° NNW visible
27 May -1.5 22:10:00 10° NNW 22:12:23 19° NNE 22:12:23 19° NNE visible
28 May -1.1 21:22:32 10° N 21:24:05 13° NNE 21:25:38 10° NE visible
28 May -0.9 22:57:53 10° NW 22:58:51 18° NW 22:58:51 18° NW visible
29 May -2.7 22:09:46 10° NW 22:12:25 42° N 22:12:25 42° N visible
30 May -2.3 21:21:48 10° NNW 21:24:45 28° NE 21:26:01 22° ENE visible
30 May -0.6 22:58:44 10° WNW 22:58:55 11° WNW 22:58:55 11° WNW visible
31 May -1.6 20:33:59 10° NNW 20:36:23 18° NNE 20:38:45 10° ENE visible
31 May -2.5 22:10:05 10° WNW 22:12:33 36° W 22:12:33 36° W visible
01 Jun -3.9 21:21:43 10° NW 21:25:04 88° WSW 21:26:13 38° SE visible
02 Jun -3.2 20:33:31 10° NW 20:36:46 46° NE 20:39:55 10° ESE visible
02 Jun -1.1 22:11:38 10° W 22:12:50 13° WSW 22:12:50 13° WSW visible
